Retour au catalogue

DELTA 1 DEB

ActifPO
NORAD 21934·DEBRIS·🇺🇸 United States

Lancé Jun 12, 1975 depuis Vandenberg Space Force Base

Loading…

Prochains Passages (prochaines 24 heures)

TLE

FraisSource: Space-Track

Époque: Sep 14, 2026, 03:15 UTC

1 21934U 75052JU  26257.13563959  .00000118  00000-0  46615-3 0  9996
2 21934  99.6596 134.1642 0291909 171.0343 343.8209 12.93115421655032

Suivez DELTA 1 DEB en temps réel avec AllMySat

Download on the App Store